When you browse on this site, cookies collect data to enhance your experience and personalize the content and advertising you see.
Visit our Privacy Policy to learn more. By continuing to use the site, you agree to this use of cookies and data.
  • Em Portugal
  • Lista de países
  • Para 7 dias
  • Temperatura da água
  • Mapa do tempo
  • Widgets de tempo
  • user-avatar
    Iniciar Sessão

    Previsão horária em Ourense

    Hoje, 21 Agosto, Quarta-feira

    Tempo Temperatura Precipitação Vento Pressão Humidade
    00:00 +16°C° 0 mm 1 m/s 737 mmHg 86%
    01:00 +16°C° 0 mm 1 m/s 737 mmHg 86%
    02:00 +16°C° 0 mm 1 m/s 736 mmHg 85%
    03:00 +16°C° 0 mm 1 m/s 736 mmHg 85%
    04:00 +16°C° 0 mm 1 m/s 736 mmHg 84%
    05:00 +15°C° 0 mm 1 m/s 736 mmHg 83%
    06:00 +19°C° 0 mm 1 m/s 737 mmHg 71%
    07:00 +22°C° 0 mm 1 m/s 737 mmHg 59%
    08:00 +25°C° 0 mm 1 m/s 737 mmHg 48%
    09:00 +28°C° 0 mm 1 m/s 737 mmHg 41%
    10:00 +30°C° 0 mm 1 m/s 737 mmHg 34%
    11:00 +33°C° 0 mm 1 m/s 737 mmHg 27%
    12:00 +33°C° 0 mm 1 m/s 737 mmHg 25%
    13:00 +34°C° 0 mm 1 m/s 737 mmHg 23%
    14:00 +35°C° 0 mm 2 m/s 737 mmHg 20%
    15:00 +34°C° 0 mm 2 m/s 737 mmHg 27%
    16:00 +31°C° 0 mm 2 m/s 736 mmHg 33%
    17:00 +29°C° 0 mm 3 m/s 736 mmHg 39%
    18:00 +26°C° 0 mm 2 m/s 736 mmHg 53%
    19:00 +23°C° 0 mm 2 m/s 737 mmHg 68%
    20:00 +20°C° 0 mm 1 m/s 737 mmHg 82%
    21:00 +19°C° 0 mm 1 m/s 737 mmHg 85%
    22:00 +19°C° 0 mm 1 m/s 737 mmHg 88%
    23:00 +18°C° 0 mm 1 m/s 737 mmHg 90%

    Amanhã, 22 Agosto, Quinta-feira

    Tempo Temperatura Precipitação Vento Pressão Humidade
    00:00 +18°C° 0 mm 1 m/s 737 mmHg 89%
    01:00 +18°C° 0 mm 1 m/s 736 mmHg 89%
    02:00 +18°C° 0 mm 1 m/s 736 mmHg 88%
    03:00 +18°C° 0 mm 1 m/s 736 mmHg 87%
    04:00 +18°C° 0 mm 1 m/s 736 mmHg 86%
    05:00 +18°C° 0 mm 1 m/s 736 mmHg 86%
    06:00 +21°C° 0 mm 1 m/s 737 mmHg 73%
    07:00 +24°C° 0 mm 1 m/s 737 mmHg 60%
    08:00 +28°C° 0 mm 1 m/s 737 mmHg 47%
    09:00 +30°C° 0 mm 1 m/s 737 mmHg 40%
    10:00 +33°C° 0 mm 1 m/s 737 mmHg 32%
    11:00 +36°C° 0 mm 1 m/s 737 mmHg 25%
    12:00 +36°C° 0 mm 1 m/s 736 mmHg 23%
    13:00 +37°C° 0 mm 1 m/s 736 mmHg 21%
    14:00 +37°C° 0 mm 1 m/s 736 mmHg 19%
    15:00 +36°C° 0 mm 1 m/s 736 mmHg 23%
    16:00 +35°C° 0 mm 1 m/s 735 mmHg 26%
    17:00 +33°C° 0 mm 1 m/s 735 mmHg 29%
    18:00 +30°C° 0 mm 1 m/s 735 mmHg 37%
    19:00 +27°C° 0 mm 1 m/s 735 mmHg 46%
    20:00 +24°C° 0 mm 1 m/s 735 mmHg 54%
    21:00 +23°C° 0 mm 1 m/s 735 mmHg 58%
    22:00 +23°C° 0 mm 1 m/s 735 mmHg 62%
    23:00 +22°C° 0 mm 1 m/s 735 mmHg 65%

    Depois de amanhã, 23 Agosto, Sexta-feira

    Tempo Temperatura Precipitação Vento Pressão Humidade
    00:00 +22°C° 0 mm 1 m/s 735 mmHg 65%
    01:00 +21°C° 0 mm 1 m/s 735 mmHg 65%
    02:00 +21°C° 0 mm 1 m/s 734 mmHg 64%
    03:00 +21°C° 0 mm 1 m/s 734 mmHg 61%
    04:00 +21°C° 0 mm 1 m/s 734 mmHg 57%
    05:00 +21°C° 0 mm 1 m/s 734 mmHg 54%
    06:00 +24°C° 0 mm 1 m/s 735 mmHg 45%
    07:00 +27°C° 0 mm 1 m/s 735 mmHg 35%
    08:00 +30°C° 0 mm 1 m/s 735 mmHg 26%
    09:00 +32°C° 0 mm 2 m/s 735 mmHg 24%
    10:00 +36°C° 0 mm 2 m/s 735 mmHg 21%
    11:00 +38°C° 0 mm 2 m/s 735 mmHg 19%
    12:00 +38°C° 0 mm 2 m/s 735 mmHg 19%
    13:00 +38°C° 0 mm 2 m/s 735 mmHg 20%
    14:00 +38°C° 0 mm 3 m/s 735 mmHg 21%
    15:00 +37°C° 0 mm 2 m/s 735 mmHg 24%
    16:00 +35°C° 0 mm 2 m/s 735 mmHg 28%
    17:00 +34°C° 0 mm 2 m/s 735 mmHg 32%
    18:00 +30°C° 0 mm 1 m/s 735 mmHg 38%
    19:00 +27°C° 0 mm 1 m/s 735 mmHg 45%
    20:00 +22°C° 0 mm 0 m/s 735 mmHg 52%
    21:00 +22°C° 0 mm 0 m/s 735 mmHg 53%
    22:00 +21°C° 0 mm 0 m/s 735 mmHg 54%
    23:00 +20°C° 0 mm 0 m/s 735 mmHg 55%

    24 Agosto, Sábado

    Tempo Temperatura Precipitação Vento Pressão Humidade
    00:00 +20°C° 0 mm 0 m/s 735 mmHg 56%
    01:00 +20°C° 0 mm 0 m/s 734 mmHg 57%
    02:00 +19°C° 0 mm 0 m/s 734 mmHg 58%
    03:00 +19°C° 0 mm 0 m/s 734 mmHg 58%
    04:00 +19°C° 0 mm 0 m/s 734 mmHg 59%
    05:00 +19°C° 0 mm 0 m/s 734 mmHg 60%
    06:00 +22°C° 0 mm 0 m/s 734 mmHg 52%
    07:00 +25°C° 0 mm 0 m/s 735 mmHg 44%
    08:00 +29°C° 0 mm 0 m/s 735 mmHg 37%
    09:00 +32°C° 0 mm 1 m/s 735 mmHg 33%
    10:00 +34°C° 0 mm 1 m/s 735 mmHg 29%
    11:00 +37°C° 0 mm 2 m/s 735 mmHg 25%
    12:00 +37°C° 0 mm 2 m/s 735 mmHg 25%
    13:00 +37°C° 0 mm 3 m/s 735 mmHg 25%
    14:00 +36°C° 0 mm 3 m/s 734 mmHg 26%
    15:00 +35°C° 0 mm 3 m/s 734 mmHg 28%
    16:00 +33°C° 0 mm 3 m/s 734 mmHg 31%
    17:00 +31°C° 0 mm 3 m/s 734 mmHg 34%
    18:00 +28°C° 0 mm 2 m/s 734 mmHg 43%
    19:00 +25°C° 0 mm 2 m/s 735 mmHg 52%
    20:00 +22°C° 0 mm 1 m/s 735 mmHg 61%
    21:00 +22°C° 0 mm 1 m/s 735 mmHg 66%
    22:00 +21°C° 0 mm 1 m/s 734 mmHg 71%
    23:00 +20°C° 0 mm 1 m/s 734 mmHg 76%

    25 Agosto, Domingo

    Tempo Temperatura Precipitação Vento Pressão Humidade
    00:00 +20°C° 0 mm 1 m/s 734 mmHg 78%
    01:00 +19°C° 0 mm 1 m/s 734 mmHg 81%
    02:00 +19°C° 0 mm 1 m/s 733 mmHg 83%
    03:00 +18°C° 0 mm 1 m/s 733 mmHg 85%
    04:00 +18°C° 0 mm 1 m/s 733 mmHg 87%
    05:00 +16°C° 0 mm 1 m/s 734 mmHg 89%
    06:00 +20°C° 0 mm 1 m/s 734 mmHg 78%
    07:00 +22°C° 0 mm 1 m/s 734 mmHg 68%
    08:00 +25°C° 0 mm 1 m/s 734 mmHg 58%
    09:00 +28°C° 0 mm 1 m/s 735 mmHg 51%
    10:00 +30°C° 0 mm 1 m/s 735 mmHg 44%
    11:00 +33°C° 0 mm 1 m/s 735 mmHg 37%
    12:00 +34°C° 0 mm 2 m/s 735 mmHg 35%
    13:00 +35°C° 0 mm 2 m/s 734 mmHg 33%
    14:00 +36°C° 0 mm 2 m/s 734 mmHg 31%
    15:00 +34°C° 0 mm 2 m/s 734 mmHg 35%
    16:00 +31°C° 0 mm 3 m/s 734 mmHg 39%
    17:00 +30°C° 0 mm 3 m/s 734 mmHg 43%
    18:00 +27°C° 0 mm 3 m/s 734 mmHg 52%
    19:00 +24°C° 0 mm 2 m/s 735 mmHg 61%
    20:00 +20°C° 0 mm 2 m/s 735 mmHg 70%
    21:00 +20°C° 0 mm 1 m/s 735 mmHg 76%
    22:00 +19°C° 0 mm 1 m/s 735 mmHg 81%
    23:00 +18°C° 0 mm 1 m/s 735 mmHg 87%

    26 Agosto, Segunda-feira

    Tempo Temperatura Precipitação Vento Pressão Humidade
    00:00 +18°C° 0 mm 1 m/s 735 mmHg 88%
    01:00 +18°C° 0 mm 1 m/s 734 mmHg 89%
    02:00 +18°C° 0 mm 1 m/s 734 mmHg 91%
    03:00 +18°C° 0 mm 1 m/s 734 mmHg 90%
    04:00 +18°C° 0 mm 1 m/s 735 mmHg 89%
    05:00 +18°C° 0 mm 1 m/s 735 mmHg 88%
    06:00 +21°C° 0 mm 1 m/s 735 mmHg 75%
    07:00 +24°C° 0 mm 1 m/s 736 mmHg 63%
    08:00 +28°C° 0 mm 1 m/s 736 mmHg 50%
    09:00 +31°C° 0 mm 1 m/s 736 mmHg 41%
    10:00 +34°C° 0 mm 1 m/s 736 mmHg 32%
    11:00 +37°C° 0 mm 1 m/s 736 mmHg 23%
    12:00 +38°C° 0 mm 2 m/s 736 mmHg 21%
    13:00 +39°C° 0 mm 2 m/s 735 mmHg 20%
    14:00 +39°C° 0 mm 2 m/s 735 mmHg 18%
    15:00 +38°C° 0 mm 2 m/s 735 mmHg 22%
    16:00 +36°C° 0 mm 2 m/s 735 mmHg 27%
    17:00 +34°C° 0 mm 3 m/s 735 mmHg 32%
    18:00 +31°C° 0.2 mm 2 m/s 736 mmHg 40%
    19:00 +28°C° 0.2 mm 1 m/s 736 mmHg 48%
    20:00 +26°C° 0.2 mm 1 m/s 736 mmHg 56%
    21:00 +25°C° 0 mm 1 m/s 736 mmHg 57%
    22:00 +25°C° 0 mm 1 m/s 736 mmHg 58%
    23:00 +25°C° 0 mm 1 m/s 736 mmHg 58%
    Mostrar mais